Regional Weather Roundup
Issued by NWS

Home | Current Version | Previous Version | Graphics & Text | Print | Product List | Glossary On
Versions: 1 2 3 4 5 6 7 8 9 10 11 12 13 14 15 16 17 18 19 20 21 22 23 24 25 26 27 28 29 30 31 32 33 34 35 36 37 38 39 40 41 42 43 44 45 46 47 48 49 50
000
ASUS43 KDMX 292307
RWRIA

WEATHER ROUNDUP FOR IOWA
NATIONAL WEATHER SERVICE DES MOINES IA
600 PM CDT SUN MAR 29 2015

NOTE: "FAIR" INDICATES FEW OR NO CLOUDS BELOW 12,000 FEET WITH NO
SIGNIFICANT WEATHER AND/OR OBSTRUCTIONS TO VISIBILITY.

* - THESE STATIONS ARE NOT NWS STATIONS...THUS NOT UNDER NWS
QUALITY CONTROL.  THEY ALSO DO NOT REPORT WEATHER SUCH
AS PRECIPITATION OR FOG.

IAZ001>003-012>014-020>022-031>034-043>046-300000-
   NORTHWEST IOWA

CITY           SKY/WX    TMP DP  RH WIND       PRES   REMARKS
CARROLL *      SUNNY     59  21  23 NW29G36   29.98R
CHEROKEE *     SUNNY     59  21  23 NW21G26   30.00R
DENISON *      SUNNY     61  23  23 NW16G28   29.99R
LE MARS *      SUNNY     61  21  21 NW21G31   30.02S
ORANGE CITY *  SUNNY     61  18  18 NW20G28   30.00S
SHELDON *      SUNNY     57  19  23 NW31G37   29.98R
SIOUX CITY     SUNNY     62  20  19 NW21G32   30.03R
SPENCER        SUNNY     58  21  24 NW29G35   29.97R
STORM LAKE *   SUNNY     57  21  24 NW28      29.99R
$$

IAZ055>058-069>071-079>083-090>094-300000-
   SOUTHWEST IOWA

CITY           SKY/WX    TMP DP  RH WIND       PRES   REMARKS
ATLANTIC *     SUNNY     61  27  27 NW21G29   30.01R
AUDUBON *      SUNNY     61  18  18 NW16G29   30.01R
CLARINDA *     SUNNY     61  32  33 N20       30.05R
COUNCIL BLFS * SUNNY     61  28  29 N15G23    30.04R
CRESTON *      SUNNY     57  34  41 NW22G35   30.00R
HARLAN  *      SUNNY     59  25  27 NW24G30   30.05R
LAMONI         SUNNY     58  36  43 NW22G32   29.99R
RED OAK *      SUNNY     61  30  31 NW16G26   30.04R
SHENANDOAH *   SUNNY     61  30  31 N20       30.05S
$$

IAZ047>049-059>061-072>074-084-300000-
   CENTRAL IOWA

CITY           SKY/WX    TMP DP  RH WIND       PRES   REMARKS
AMES           SUNNY     60  21  22 N23G38    29.94R
ANKENY *       SUNNY     61  23  23 NW21G31   29.94R
CHARITON *     SUNNY     59  30  33 NW25      29.95R
DES MOINES     MOSUNNY   62  23  22 NW23G32   29.95R
GRINNELL*      SUNNY     59  27  29 NW25G35   29.91R
KNOXVILLE *    SUNNY     61  30  31 NW26G35   29.93R
MARSHALLTOWN   SUNNY     58  28  32 NW28G35   29.91R
PELLA *        SUNNY     61  34  36 NW22G30   29.94R
PERRY *          N/A     61  23  23 NW18G35   29.97R
$$

IAZ004>006-015-016-023>025-035-036-300000-
   NORTH CENTRAL IOWA

CITY           SKY/WX    TMP DP  RH WIND       PRES   REMARKS
ALGONA *       SUNNY     57  25  28 NW25G36   29.94R
CLARION *      SUNNY     55  28  35 NW28G35   29.92R
ESTHERVILLE    SUNNY     56  24  29 NW32G41   29.95R
FORT DODGE *   SUNNY     59  27  29 NW21G28   29.96R
MASON CITY     SUNNY     54  28  36 NW35G44   29.89R
FOREST CITY *  SUNNY     54  28  37 NW23G32   29.90R
IOWA FALLS *     N/A     57  28  33 NW21G32   29.92R
$$

IAZ007>011-017>019-026>030-037>042-050>054-066-300000-
   NORTHEAST IOWA

CITY           SKY/WX    TMP DP  RH WIND       PRES   REMARKS
CEDAR RAPIDS   SUNNY     56  36  47 NW25G31   29.85R
CHARLES CITY * SUNNY     52  32  46 NW25G39   29.86R
CLINTON *      MOSUNNY   54  43  66 NW26G33   29.84R
DECORAH *      SUNNY     48  34  57 NW15G29   29.81R
DUBUQUE        MOSUNNY   49  36  61 NW14      29.82R
MONTICELLO *   SUNNY     54  39  58 NW22      29.83R
OELWEIN *      SUNNY     54  32  43 NW26      29.84R
WATERLOO       SUNNY     56  26  31 NW24G36   29.86R
$$

IAZ064-065-067-068-078-300000-
   EAST CENTRAL IOWA

CITY           SKY/WX    TMP DP  RH WIND       PRES   REMARKS
DAVENPORT      MOSUNNY   55  40  56 NW18G31   29.83R
IOWA CITY      SUNNY     57  36  45 NW25G36   29.87R
MT. PLEASANT * MOSUNNY   57  39  51 W18G31    29.89R
MUSCATINE *    SUNNY     59  39  47 NW26      29.86R
QUAD CITIES    PTSUNNY   56  39  53 NW24G32   29.82R
$$

IAZ062-063-075>077-085>089-095>099-300000-
   SOUTHEAST IOWA

CITY           SKY/WX    TMP DP  RH WIND       PRES   REMARKS
BURLINGTON     CLOUDY    58  42  55 NW16G23   29.87R
FAIRFIELD *    SUNNY     59  36  41 NW25G32   29.90R
FORT MADISON * CLOUDY    57  43  58 W20G26    29.90R
KEOKUK *       CLOUDY    59  41  51 NW16G23   29.90R
OSKALOOSA *      N/A     59  34  38 NW23      29.92R
CENTERVILLE *  SUNNY     57  37  47 NW18G25   29.97R
OTTUMWA        SUNNY     60  32  34 NW26G35   29.91R
WASHINGTON *   MOSUNNY   59  36  41 NW21G35   29.89R
$$

ABBREVIATIONS USED IN REMARKS
   TC - TEMPERATURES IN CELSIUS
  WCI - WIND CHILL INDEX
   HX - HEAT INDEX
  VSB - VISIBILITY
$$



USA.gov is the U.S. government's official web portal to all federal, state and local government web resources and services.